Home > Weather > Istanbul > Past weeks

Flag for Turkey Past Weather in Istanbul, Turkey — Yesterday and Last 2 Weeks

Now
68 °F

Scattered clouds.


Feels Like: 68 °F
Forecast: 62 / 69 °F
Wind: 9 mph from Southwest

Location: Istanbul Ataturk Airport

Current Time: May 25, 2016 at 12:17:42 PM

Latest Report: May 25, 2016 at 11:20 AM


Visibility: N/A

Pressure: 29.68 "Hg

Humidity: 60%

Dew Point: 54 °F

Location of IstanbulLocation

Past Weather in Istanbul — Graph

°F

Istanbul Temperature Yesterday

Maximum temperature yesterday: 75 °F (at 3:20 PM)
Minimum temperature yesterday: 61 °F (at 4:20 AM)
Average temperature yesterday: 68 °F

High & Low Weather Summary for the Past Weeks

 TemperatureHumidityPressure
High81 °F (May 15, 3:20 PM)88% (May 11, 3:50 AM)30.09 "Hg (May 11, 3:50 AM)
Low55 °F (May 11, 3:20 AM)19% (May 20, 3:50 PM)29.59 "Hg (May 13, 12:20 PM)
Average66 °F62%29.89 "Hg
* Reported May 10 10:20 AM — May 25 10:50 AM, Istanbul, Weather by CustomWeather, © 2016

Note: Actual official high and low records may vary slightly from our data, if they occured in-between our weather recording intervals... More about our weather records

Advertising

Istanbul Weather History for the Previous 24 Hours

Scroll right to see more
 ConditionsComfort  
Time TempWeatherWind HumidityBarometerVisibility
10:50 AM
Wed, May 25
66 °FScattered clouds.9 mph68%29.68 "HgN/A
10:20 AM66 °FScattered clouds.8 mph64%29.68 "HgN/A
9:50 AM68 °FPassing clouds.8 mph53%29.68 "HgN/A
9:20 AM66 °FPassing clouds.5 mph56%29.68 "HgN/A
8:50 AM64 °FScattered clouds.5 mph64%29.68 "HgN/A
8:20 AM66 °FScattered clouds.3 mph56%29.68 "HgN/A
7:50 AM64 °FScattered clouds.3 mph64%29.65 "HgN/A
7:20 AM63 °FPassing clouds.6 mph68%29.65 "HgN/A
6:50 AM61 °FPartly sunny.3 mph72%29.65 "HgN/A
6:20 AM63 °FPartly cloudy.5 mph68%29.68 "HgN/A
5:50 AM61 °FPartly cloudy.6 mph72%29.65 "HgN/A
5:20 AM61 °FPartly cloudy.7 mph72%29.65 "HgN/A
4:50 AM61 °FPartly cloudy.8 mph68%29.65 "HgN/A
4:20 AM61 °FPartly cloudy.13 mph68%29.65 "HgN/A
3:50 AM61 °FPartly cloudy.14 mph72%29.65 "HgN/A
3:20 AM63 °FPassing clouds.22 mph68%29.65 "HgN/A
2:50 AM64 °FPassing clouds.21 mph64%29.65 "HgN/A
2:20 AM70 °FPassing clouds.15 mph50%29.65 "HgN/A
1:50 AM68 °FPassing clouds.7 mph60%29.65 "HgN/A
1:20 AM70 °FPassing clouds.10 mph53%29.65 "HgN/A
12:50 AM68 °FClear.10 mph56%29.65 "Hg10 mi
12:20 AM68 °FPassing clouds.6 mph64%29.65 "HgN/A
11:50 PM
Tue, May 24
68 °FClear.7 mph64%29.65 "Hg10 mi
11:20 PM68 °FPassing clouds.7 mph69%29.68 "HgN/A
10:50 PM68 °FPassing clouds.7 mph69%29.68 "HgN/A
10:20 PM68 °FPassing clouds.7 mph69%29.68 "HgN/A
9:50 PM70 °FPassing clouds.9 mph60%29.68 "HgN/A
9:20 PM70 °FPassing clouds.7 mph64%29.68 "HgN/A
8:50 PM70 °FSunny.8 mph64%29.68 "Hg10 mi
8:20 PM72 °FPassing clouds.8 mph57%29.68 "HgN/A
7:50 PM72 °FSunny.10 mph57%29.71 "Hg10 mi
7:20 PM73 °FSunny.13 mph50%29.71 "Hg10 mi
6:50 PM75 °FPassing clouds.10 mph44%29.71 "HgN/A
6:20 PM75 °FPassing clouds.10 mph44%29.71 "HgN/A
5:50 PM75 °FPassing clouds.9 mph44%29.74 "HgN/A
5:20 PM73 °FPassing clouds.9 mph47%29.74 "HgN/A
4:50 PM75 °FPassing clouds.9 mph47%29.77 "HgN/A
4:20 PM75 °FSunny.9 mph47%29.77 "Hg10 mi
3:50 PM73 °FSunny.9 mph47%29.80 "Hg10 mi
3:20 PM75 °FSunny.12 mph47%29.80 "Hg10 mi
2:50 PM72 °FSunny.9 mph53%29.80 "Hg10 mi
2:20 PM72 °FPassing clouds.8 mph53%29.83 "HgN/A
1:50 PM70 °FPassing clouds.7 mph57%29.83 "HgN/A
1:20 PM72 °FPassing clouds.10 mph53%29.86 "HgN/A
12:50 PM72 °FSunny.12 mph53%29.86 "Hg10 mi
12:20 PM72 °FSunny.12 mph57%29.86 "Hg10 mi
Weather by CustomWeather, © 2016

See weather overviewHow to use our weather pages